NKS1115 KIAD-KJFK

Flight info

Callsign NKS1115
Flight time 0h 28m
Altitude 34000
Route JCOBY4 AGARD DCT DONIL/N0368F170 T315 PANZE V44 CAMRN DCT
Aircraft A320/M-VGDW/C

Departure

Time 2026-05-04 10:37
Airport Washington Dulles International Airport (KIAD)

Arrival

Time 2026-05-04 11:05
Airport John F. Kennedy International Airport (KJFK)
Time Latitude Longitude Altitude Speed Heading
2026-05-04 10:02 38.94290 -77.45224 301 ft 0 kts
2026-05-04 10:08 38.94501 -77.45273 301 ft 0 kts 346°
2026-05-04 10:30 38.94485 -77.45268 300 ft 4 kts 345°
2026-05-04 10:30 38.94459 -77.45261 300 ft 4 kts 350°
2026-05-04 10:30 38.94433 -77.45253 300 ft 4 kts 332°
2026-05-04 10:31 38.94416 -77.45233 302 ft 4 kts 277°
2026-05-04 10:31 38.94415 -77.45226 300 ft 0 kts 271°
2026-05-04 10:32 38.94414 -77.45247 300 ft 3 kts 267°
2026-05-04 10:33 38.94412 -77.45288 303 ft 6 kts 268°
2026-05-04 10:33 38.94414 -77.45350 302 ft 8 kts 273°
2026-05-04 10:33 38.94418 -77.45436 300 ft 11 kts 272°
2026-05-04 10:33 38.94419 -77.45544 300 ft 13 kts 265°
2026-05-04 10:34 38.94348 -77.45614 302 ft 15 kts 181°
2026-05-04 10:34 38.94231 -77.45615 302 ft 18 kts 180°
2026-05-04 10:34 38.94098 -77.45617 301 ft 20 kts 180°
2026-05-04 10:34 38.93948 -77.45618 302 ft 23 kts 180°
2026-05-04 10:35 38.93784 -77.45619 302 ft 25 kts 180°
2026-05-04 10:35 38.93647 -77.45654 302 ft 19 kts 201°
2026-05-04 10:35 38.93515 -77.45719 299 ft 22 kts 201°
2026-05-04 10:35 38.93420 -77.45769 299 ft 13 kts 219°
2026-05-04 10:36 38.93441 -77.45866 298 ft 27 kts 292°
2026-05-04 10:36 38.93595 -77.46389 305 ft 95 kts 290°
2026-05-04 10:36 38.93892 -77.47401 302 ft 144 kts 290°
2026-05-04 10:36 38.94280 -77.48729 579 ft 164 kts 290°
2026-05-04 10:37 38.94718 -77.50098 1149 ft 168 kts 292°
2026-05-04 10:37 38.95464 -77.51221 1773 ft 167 kts 330°
2026-05-04 10:37 38.96567 -77.51540 2353 ft 164 kts
2026-05-04 10:37 38.97589 -77.50940 2829 ft 164 kts 49°
2026-05-04 10:39 39.04384 -77.43364 4654 ft 278 kts 38°
2026-05-04 10:39 39.05901 -77.41736 5393 ft 287 kts 39°
2026-05-04 10:39 39.07436 -77.40061 6276 ft 290 kts 39°
2026-05-04 10:40 39.08981 -77.38359 7144 ft 294 kts 39°
2026-05-04 10:40 39.10544 -77.36631 8012 ft 298 kts 39°
2026-05-04 10:40 39.12120 -77.34878 8824 ft 301 kts 39°
2026-05-04 10:40 39.13543 -77.32925 9598 ft 307 kts 54°
2026-05-04 10:41 39.14567 -77.30474 10203 ft 320 kts 69°
2026-05-04 10:41 39.15075 -77.27557 10444 ft 343 kts 87°
2026-05-04 10:41 39.14864 -77.24414 10635 ft 363 kts 106°
2026-05-04 10:41 39.14138 -77.21292 11097 ft 373 kts 109°
2026-05-04 10:42 39.13374 -77.18075 11721 ft 378 kts 109°
2026-05-04 10:42 39.12605 -77.14821 12342 ft 382 kts 108°
2026-05-04 10:42 39.11828 -77.11532 12955 ft 385 kts 109°
2026-05-04 10:42 39.11035 -77.08198 13533 ft 391 kts 109°
2026-05-04 10:43 39.10233 -77.04827 14133 ft 396 kts 108°
2026-05-04 10:44 39.04333 -76.80234 17892 ft 425 kts 109°
2026-05-04 10:45 39.03452 -76.76586 18397 ft 430 kts 109°
2026-05-04 10:45 39.02558 -76.72891 18889 ft 434 kts 109°
2026-05-04 10:45 39.01667 -76.69170 19396 ft 439 kts 107°
2026-05-04 10:45 39.01074 -76.65296 19904 ft 444 kts 97°
2026-05-04 10:46 39.00937 -76.61320 20401 ft 448 kts 89°
2026-05-04 10:46 39.00956 -76.57297 20867 ft 451 kts 89°
2026-05-04 10:46 39.00972 -76.53297 21304 ft 455 kts 89°
2026-05-04 10:46 39.00984 -76.49220 21739 ft 458 kts 89°
2026-05-04 10:47 39.01799 -76.33392 23290 ft 470 kts 81°
2026-05-04 10:47 39.03457 -76.16520 24790 ft 482 kts 82°
2026-05-04 10:47 39.04881 -75.99142 26152 ft 493 kts 86°
2026-05-04 10:47 39.05503 -75.81303 27434 ft 504 kts 88°
2026-05-04 10:49 39.41510 -74.65568 29023 ft 510 kts 53°
2026-05-04 10:49 39.49507 -74.50247 28509 ft 513 kts 51°
2026-05-04 10:50 39.57714 -74.35247 25667 ft 501 kts 51°
2026-05-04 10:51 40.08203 -73.82076 13011 ft 374 kts 20°
2026-05-04 10:52 40.10507 -73.80757 12624 ft 352 kts 20°
2026-05-04 10:52 40.12749 -73.79471 11647 ft 351 kts 20°
2026-05-04 10:52 40.14970 -73.78184 10758 ft 347 kts 21°
2026-05-04 10:54 40.29632 -73.69414 5686 ft 325 kts 21°
2026-05-04 10:54 40.36945 -73.65013 4076 ft 318 kts 21°
2026-05-04 10:56 40.56548 -73.60217 2010 ft 238 kts 339°
2026-05-04 10:56 40.58142 -73.60823 2010 ft 239 kts 339°
2026-05-04 10:56 40.59742 -73.61432 2009 ft 240 kts 339°
2026-05-04 10:57 40.61346 -73.62041 2014 ft 239 kts 339°
2026-05-04 10:57 40.62946 -73.62646 2011 ft 239 kts 339°
2026-05-04 10:57 40.64546 -73.63255 2007 ft 238 kts 339°
2026-05-04 10:57 40.66118 -73.63751 2007 ft 228 kts 347°
2026-05-04 10:58 40.67650 -73.63966 2007 ft 218 kts 351°
2026-05-04 10:58 40.69138 -73.63838 2000 ft 211 kts
2026-05-04 10:58 40.70561 -73.63475 2001 ft 206 kts
2026-05-04 10:58 40.71965 -73.63125 1997 ft 203 kts 358°
2026-05-04 10:59 40.73216 -73.63544 2012 ft 173 kts 317°
2026-05-04 10:59 40.73926 -73.64650 1994 ft 147 kts 291°
2026-05-04 10:59 40.74185 -73.65892 2007 ft 140 kts 271°
2026-05-04 10:59 40.74061 -73.67144 2000 ft 138 kts 251°
2026-05-04 11:00 40.73588 -73.68215 1979 ft 134 kts 231°
2026-05-04 11:01 40.68066 -73.72692 845 ft 133 kts 215°
2026-05-04 11:02 40.67270 -73.73347 682 ft 133 kts 215°
2026-05-04 11:02 40.66464 -73.73962 509 ft 135 kts 212°
2026-05-04 11:05 40.63169 -73.77502 16 ft 20 kts 298°
2026-05-04 11:06 40.63239 -73.77660 20 ft 19 kts 301°
2026-05-04 11:06 40.63311 -73.77813 21 ft 20 kts 301°
2026-05-04 11:06 40.63368 -73.77943 16 ft 12 kts 306°
2026-05-04 11:06 40.63423 -73.77913 16 ft 8 kts 49°
2026-05-04 11:08 40.63829 -73.77575 16 ft 13 kts 31°
2026-05-04 11:10 40.64560 -73.77091 16 ft 21 kts
2026-05-04 11:12 40.65099 -73.78006 17 ft 22 kts 300°
2026-05-04 11:12 40.65173 -73.78170 17 ft 14 kts 297°
2026-05-04 11:12 40.65156 -73.78266 16 ft 4 kts 214°
2026-05-04 11:12 40.65129 -73.78290 16 ft 5 kts 214°
2026-05-04 11:13 40.65113 -73.78305 16 ft 0 kts 214°